Flag for U.S.A. Weather past 2 weeks in Monterey, California, U.S.A.

Now
68 °F

Sunny.


Feels Like: 68 °F
Forecast: 56 / 65 °F
Wind: 14 mph from Southwest

Location: Monterey Peninsula Airport

Current Time: Oct 24, 2014 at 2:39:10 PM

Latest Report: Oct 24, 2014 at 1:54 PM


Visibility: 10 mi

Pressure: 29.97 "Hg

Humidity: 63%

Dew point: 55 °F

Location of MontereyLocation

Historic Weather in Monterey — Graph

°F

Monterey temperature yesterday

Maximum temperature yesterday: 72 °F (at 12:54 PM)
Minimum temperature yesterday: 52 °F (at 4:54 AM)
Average temperature yesterday: 62 °F

Past Weeks' High & Low Weather Summary

 TemperatureHumidityPressure
High79 °F (Oct 12, 11:54 AM)94% (Oct 12, 2:02 AM)30.14 "Hg (Oct 12, 2:02 AM)
Low50 °F (Oct 21, 5:54 AM)21% (Oct 13, 5:54 AM)29.84 "Hg (Oct 14, 2:54 PM)
Average62 °F70%30.01 "Hg
* Reported Oct 9 12:54 PM — Oct 24 12:54 PM, Monterey, Weather by CustomWeather, © 2014

Note: Actual official high and low records may vary slightly from our data, if they occured in-between our weather recording intervals... More about our weather records

Advertising

Monterey weather history for previous 24 hours

 ConditionsComfort  
Time TempWeatherWind HumidityBarometerVisibility
12:54 PM
Oct 24
68 °FSunny.10 mph63%29.99 "Hg10 mi
11:54 AM65 °FScattered clouds.6 mph76%30.01 "Hg10 mi
10:54 AM63 °FFog.No wind81%30.02 "Hg10 mi
9:54 AM61 °FFog.No wind83%30.03 "Hg10 mi
9:04 AM59 °FFog.3 mph82%29.99 "Hg10 mi
8:54 AM57 °FFog.5 mph83%30.03 "Hg10 mi
8:01 AM52 °FFog.8 mph82%29.98 "Hg10 mi
7:54 AM52 °FFog.6 mph83%30.01 "Hg3 mi
7:01 AM52 °FFog.3 mph88%29.97 "Hg3 mi
5:54 AM53 °FPassing clouds.No wind93%30.00 "Hg10 mi
4:54 AM55 °FFog.5 mph93%29.99 "Hg4 mi
3:54 AM54 °FPassing clouds.No wind86%30.00 "Hg10 mi
2:54 AM52 °FClear.5 mph89%30.00 "Hg10 mi
1:54 AM55 °FClear.No wind83%30.01 "Hg10 mi
12:54 AM55 °FClear.7 mph83%30.01 "Hg10 mi
11:54 PM
Oct 23
56 °FClear.3 mph84%30.01 "Hg10 mi
10:54 PM56 °FClear.5 mph87%30.01 "Hg10 mi
9:54 PM58 °FClear.5 mph84%30.00 "Hg10 mi
8:54 PM59 °FClear.No wind87%29.99 "Hg10 mi
7:54 PM62 °FPassing clouds.3 mph86%30.01 "Hg10 mi
6:54 PM64 °FPassing clouds.No wind84%30.01 "Hg10 mi
5:54 PM67 °FSunny.No wind73%30.01 "Hg10 mi
4:54 PM68 °FSunny.6 mph68%30.02 "Hg10 mi
3:54 PM69 °FSunny.5 mph70%30.03 "Hg10 mi
2:54 PM69 °FSunny.7 mph59%30.03 "Hg10 mi
Weather by CustomWeather, © 2014

See weather overviewHow to use our weather pages